When you browse on this site, cookies collect data to enhance your experience and personalize the content and advertising you see.
Visit our Privacy Policy to learn more. By continuing to use the site, you agree to this use of cookies and data.
  • In Romania
  • List of Countries
  • For 7 days
  • Water Temperature
  • Satellite Maps
  • Weather Map
  • Weather Widgets
  • user-avatar
    Login

    Hourly Weather Shrewsbury

    Today, 22 April, Monday

    Time Temperature Precipitation Wind Pressure Humidity
    00:00 +12°C° 0 mm 2 mps 753 mmHg 83%
    01:00 +12°C° 0 mm 2 mps 753 mmHg 85%
    02:00 +10°C° 0 mm 2 mps 752 mmHg 86%
    03:00 +10°C° 0 mm 2 mps 752 mmHg 87%
    04:00 +9°C° 0 mm 2 mps 751 mmHg 87%
    05:00 +9°C° 0 mm 2 mps 751 mmHg 87%
    06:00 +9°C° 0 mm 2 mps 751 mmHg 80%
    07:00 +11°C° 0 mm 3 mps 750 mmHg 73%
    08:00 +13°C° 0 mm 3 mps 749 mmHg 66%
    09:00 +14°C° 0 mm 3 mps 749 mmHg 59%
    10:00 +17°C° 0 mm 4 mps 749 mmHg 59%
    11:00 +18°C° 0 mm 4 mps 748 mmHg 58%
    12:00 +20°C° 0 mm 5 mps 748 mmHg 57%
    13:00 +20°C° 0.2 mm 4 mps 747 mmHg 61%
    14:00 +20°C° 0.2 mm 4 mps 746 mmHg 65%
    15:00 +20°C° 0.2 mm 4 mps 746 mmHg 70%
    16:00 +19°C° 0.2 mm 3 mps 745 mmHg 72%
    17:00 +19°C° 0.2 mm 3 mps 745 mmHg 75%
    18:00 +18°C° 0.2 mm 2 mps 745 mmHg 77%
    19:00 +17°C° 0 mm 2 mps 745 mmHg 81%
    20:00 +15°C° 0 mm 2 mps 745 mmHg 85%
    21:00 +14°C° 0 mm 2 mps 745 mmHg 88%
    22:00 +13°C° 0 mm 2 mps 745 mmHg 89%
    23:00 +13°C° 0 mm 2 mps 745 mmHg 91%

    Tomorrow, 23 April, Tuesday

    Time Temperature Precipitation Wind Pressure Humidity
    00:00 +12°C° 0 mm 1 mps 745 mmHg 92%
    01:00 +12°C° 0 mm 2 mps 744 mmHg 92%
    02:00 +12°C° 0 mm 2 mps 744 mmHg 93%
    03:00 +10°C° 0 mm 2 mps 744 mmHg 93%
    04:00 +10°C° 0 mm 2 mps 743 mmHg 92%
    05:00 +10°C° 0 mm 2 mps 743 mmHg 91%
    06:00 +9°C° 0 mm 3 mps 743 mmHg 90%
    07:00 +11°C° 0 mm 3 mps 743 mmHg 87%
    08:00 +13°C° 0 mm 4 mps 743 mmHg 83%
    09:00 +15°C° 0 mm 4 mps 742 mmHg 80%
    10:00 +16°C° 0 mm 5 mps 742 mmHg 76%
    11:00 +19°C° 0 mm 5 mps 742 mmHg 72%
    12:00 +20°C° 0 mm 6 mps 742 mmHg 68%
    13:00 +20°C° 0 mm 6 mps 742 mmHg 68%
    14:00 +21°C° 0 mm 6 mps 741 mmHg 67%
    15:00 +21°C° 0 mm 6 mps 741 mmHg 66%
    16:00 +20°C° 0 mm 5 mps 741 mmHg 71%
    17:00 +19°C° 0 mm 5 mps 741 mmHg 75%
    18:00 +18°C° 0 mm 4 mps 741 mmHg 79%
    19:00 +15°C° 0 mm 4 mps 741 mmHg 80%
    20:00 +14°C° 0 mm 4 mps 741 mmHg 81%
    21:00 +12°C° 0 mm 4 mps 740 mmHg 82%
    22:00 +11°C° 0 mm 4 mps 740 mmHg 86%
    23:00 +11°C° 0 mm 3 mps 740 mmHg 89%

    Day after tomorrow, 24 April, Wednesday

    Time Temperature Precipitation Wind Pressure Humidity
    00:00 +10°C° 0 mm 3 mps 740 mmHg 92%
    01:00 +9°C° 0 mm 3 mps 739 mmHg 94%
    02:00 +9°C° 0 mm 3 mps 738 mmHg 95%
    03:00 +9°C° 0 mm 3 mps 738 mmHg 96%
    04:00 +8°C° 0 mm 4 mps 738 mmHg 96%
    05:00 +10°C° 0 mm 4 mps 737 mmHg 95%
    06:00 +9°C° 0 mm 5 mps 737 mmHg 95%
    07:00 +9°C° 0.7 mm 5 mps 737 mmHg 94%
    08:00 +10°C° 0.7 mm 5 mps 737 mmHg 94%
    09:00 +11°C° 0.7 mm 6 mps 738 mmHg 94%
    10:00 +10°C° 1.3 mm 5 mps 738 mmHg 93%
    11:00 +10°C° 1.3 mm 4 mps 738 mmHg 93%
    12:00 +8°C° 1.3 mm 4 mps 739 mmHg 92%
    13:00 +10°C° 0.3 mm 4 mps 739 mmHg 87%
    14:00 +12°C° 0.3 mm 5 mps 739 mmHg 82%
    15:00 +13°C° 0.3 mm 6 mps 740 mmHg 77%
    16:00 +12°C° 0.2 mm 5 mps 740 mmHg 79%
    17:00 +12°C° 0.2 mm 4 mps 740 mmHg 81%
    18:00 +12°C° 0.2 mm 4 mps 740 mmHg 83%
    19:00 +10°C° 0 mm 4 mps 740 mmHg 85%
    20:00 +8°C° 0 mm 4 mps 740 mmHg 87%
    21:00 +7°C° 0 mm 4 mps 740 mmHg 88%
    22:00 +7°C° 0.3 mm 5 mps 740 mmHg 90%
    23:00 +7°C° 0.3 mm 6 mps 739 mmHg 91%

    25 April, Thursday

    Time Temperature Precipitation Wind Pressure Humidity
    00:00 +6°C° 0.3 mm 7 mps 739 mmHg 93%
    01:00 +7°C° 0.1 mm 6 mps 739 mmHg 93%
    02:00 +8°C° 0.1 mm 6 mps 738 mmHg 94%
    03:00 +8°C° 0.1 mm 5 mps 738 mmHg 94%
    04:00 +8°C° 1 mm 5 mps 738 mmHg 94%
    05:00 +8°C° 1 mm 5 mps 738 mmHg 94%
    06:00 +8°C° 1 mm 5 mps 738 mmHg 94%
    07:00 +8°C° 0.1 mm 6 mps 738 mmHg 89%
    08:00 +9°C° 0.1 mm 7 mps 738 mmHg 84%
    09:00 +10°C° 0.1 mm 8 mps 738 mmHg 79%
    10:00 +10°C° 0.4 mm 8 mps 738 mmHg 77%
    11:00 +11°C° 0.4 mm 9 mps 737 mmHg 76%
    12:00 +11°C° 0.4 mm 9 mps 737 mmHg 74%
    13:00 +10°C° 0.5 mm 8 mps 737 mmHg 80%
    14:00 +10°C° 0.5 mm 7 mps 737 mmHg 86%
    15:00 +9°C° 0.5 mm 6 mps 737 mmHg 92%
    16:00 +9°C° 0.2 mm 6 mps 738 mmHg 89%
    17:00 +9°C° 0.2 mm 7 mps 739 mmHg 87%
    18:00 +9°C° 0.2 mm 8 mps 740 mmHg 85%
    19:00 +8°C° 0 mm 7 mps 741 mmHg 86%
    20:00 +8°C° 0 mm 6 mps 743 mmHg 86%
    21:00 +7°C° 0 mm 5 mps 744 mmHg 87%
    22:00 +7°C° 0 mm 5 mps 745 mmHg 88%
    23:00 +6°C° 0 mm 5 mps 745 mmHg 89%

    26 April, Friday

    Time Temperature Precipitation Wind Pressure Humidity
    00:00 +6°C° 0 mm 5 mps 746 mmHg 89%
    01:00 +6°C° 0 mm 5 mps 746 mmHg 91%
    02:00 +5°C° 0 mm 4 mps 746 mmHg 92%
    03:00 +5°C° 0 mm 4 mps 747 mmHg 94%
    04:00 +5°C° 0 mm 4 mps 747 mmHg 94%
    05:00 +5°C° 0 mm 3 mps 747 mmHg 94%
    06:00 +5°C° 0 mm 3 mps 748 mmHg 95%
    07:00 +8°C° 0 mm 3 mps 748 mmHg 91%
    08:00 +8°C° 0 mm 4 mps 749 mmHg 86%
    09:00 +11°C° 0 mm 4 mps 749 mmHg 82%
    10:00 +11°C° 0.2 mm 4 mps 750 mmHg 81%
    11:00 +12°C° 0.2 mm 4 mps 751 mmHg 81%
    12:00 +13°C° 0.2 mm 4 mps 751 mmHg 80%
    13:00 +13°C° 0.5 mm 5 mps 752 mmHg 80%
    14:00 +11°C° 0.5 mm 6 mps 752 mmHg 80%
    15:00 +11°C° 0.5 mm 7 mps 753 mmHg 80%
    16:00 +10°C° 0 mm 6 mps 753 mmHg 78%
    17:00 +9°C° 0 mm 6 mps 753 mmHg 76%
    18:00 +8°C° 0 mm 5 mps 754 mmHg 74%
    19:00 +7°C° 0 mm 5 mps 754 mmHg 76%
    20:00 +7°C° 0 mm 6 mps 754 mmHg 79%
    21:00 +5°C° 0 mm 6 mps 754 mmHg 81%
    22:00 +7°C° 0.1 mm 6 mps 754 mmHg 82%
    23:00 +7°C° 0.1 mm 6 mps 754 mmHg 82%

    27 April, Saturday

    Time Temperature Precipitation Wind Pressure Humidity
    00:00 +7°C° 0.1 mm 5 mps 754 mmHg 82%
    01:00 +6°C° 0 mm 5 mps 755 mmHg 84%
    02:00 +5°C° 0 mm 4 mps 755 mmHg 86%
    03:00 +3°C° 0 mm 4 mps 755 mmHg 88%
    04:00 +4°C° 0 mm 4 mps 756 mmHg 87%
    05:00 +4°C° 0 mm 4 mps 756 mmHg 86%
    06:00 +4°C° 0 mm 4 mps 756 mmHg 85%
    07:00 +5°C° 0 mm 4 mps 756 mmHg 79%
    08:00 +7°C° 0 mm 5 mps 756 mmHg 73%
    09:00 +8°C° 0 mm 6 mps 756 mmHg 67%
    10:00 +8°C° 0.4 mm 6 mps 756 mmHg 74%
    11:00 +8°C° 0.4 mm 6 mps 755 mmHg 81%
    12:00 +7°C° 0.4 mm 5 mps 755 mmHg 89%
    13:00 +9°C° 0.6 mm 6 mps 754 mmHg 89%
    14:00 +10°C° 0.6 mm 7 mps 754 mmHg 90%
    15:00 +11°C° 0.6 mm 8 mps 753 mmHg 91%
    16:00 +11°C° 0.1 mm 8 mps 753 mmHg 90%
    17:00 +11°C° 0.1 mm 7 mps 754 mmHg 89%
    18:00 +11°C° 0.1 mm 7 mps 754 mmHg 89%
    19:00 +10°C° 0.1 mm 6 mps 754 mmHg 90%
    20:00 +9°C° 0.1 mm 5 mps 755 mmHg 92%
    21:00 +8°C° 0.1 mm 4 mps 756 mmHg 93%
    22:00 +8°C° 0 mm 4 mps 756 mmHg 93%
    23:00 +9°C° 0 mm 3 mps 756 mmHg 94%
    Show more